LPE2198 SPJC-SPHO

Flight info

Callsign LPE2198
Flight time 0h 35m
Altitude 27000
Route PAKOL UM668 POVLO
Aircraft A320/M-SDE3FGHIRWY/LB1

Departure

Time 2026-05-07 19:31
Airport Jorge Chávez International Airport (SPJC)

Arrival

Time 2026-05-07 20:07
Airport Air Force Colonel Alfredo Mendivil Duarte Airport (SPHO)
Time Latitude Longitude Altitude Speed Heading
2026-05-07 19:13 -12.02768 -77.11468 81 ft 0 kts 244°
2026-05-07 19:15 -12.02763 -77.11457 81 ft 3 kts 249°
2026-05-07 19:15 -12.02757 -77.11437 85 ft 3 kts 263°
2026-05-07 19:16 -12.02757 -77.11418 85 ft 3 kts 291°
2026-05-07 19:16 -12.02764 -77.11405 83 ft 2 kts 332°
2026-05-07 19:16 -12.02771 -77.11401 82 ft 0 kts 334°
2026-05-07 19:19 -12.02767 -77.11403 83 ft 3 kts 335°
2026-05-07 19:19 -12.02750 -77.11412 84 ft 3 kts 335°
2026-05-07 19:19 -12.02734 -77.11419 83 ft 2 kts 335°
2026-05-07 19:19 -12.02725 -77.11423 84 ft 1 kts 334°
2026-05-07 19:20 -12.02713 -77.11429 84 ft 3 kts 334°
2026-05-07 19:20 -12.02683 -77.11444 85 ft 6 kts 333°
2026-05-07 19:20 -12.02639 -77.11466 82 ft 8 kts 334°
2026-05-07 19:20 -12.02582 -77.11494 86 ft 10 kts 334°
2026-05-07 19:21 -12.02517 -77.11525 82 ft 11 kts 334°
2026-05-07 19:21 -12.02462 -77.11553 83 ft 9 kts 333°
2026-05-07 19:21 -12.02405 -77.11582 82 ft 10 kts 334°
2026-05-07 19:21 -12.02343 -77.11613 83 ft 10 kts 334°
2026-05-07 19:22 -12.02275 -77.11646 70 ft 12 kts 335°
2026-05-07 19:22 -12.02186 -77.11688 69 ft 16 kts 335°
2026-05-07 19:22 -12.02091 -77.11735 69 ft 11 kts 334°
2026-05-07 19:22 -12.02015 -77.11773 69 ft 14 kts 334°
2026-05-07 19:23 -12.01923 -77.11816 62 ft 10 kts 334°
2026-05-07 19:23 -12.01852 -77.11839 63 ft 11 kts 14°
2026-05-07 19:23 -12.01801 -77.11803 60 ft 8 kts 17°
2026-05-07 19:23 -12.01754 -77.11822 64 ft 8 kts 332°
2026-05-07 19:24 -12.01709 -77.11845 62 ft 7 kts 333°
2026-05-07 19:24 -12.01663 -77.11868 59 ft 8 kts 334°
2026-05-07 19:24 -12.01620 -77.11890 63 ft 10 kts 333°
2026-05-07 19:24 -12.01562 -77.11920 62 ft 10 kts 333°
2026-05-07 19:25 -12.01517 -77.11943 61 ft 13 kts 334°
2026-05-07 19:25 -12.01461 -77.11971 55 ft 7 kts 334°
2026-05-07 19:25 -12.01377 -77.12013 56 ft 11 kts 334°
2026-05-07 19:25 -12.01312 -77.12045 57 ft 5 kts 329°
2026-05-07 19:26 -12.01291 -77.12058 58 ft 5 kts 327°
2026-05-07 19:26 -12.01267 -77.12086 54 ft 5 kts 309°
2026-05-07 19:26 -12.01243 -77.12119 51 ft 6 kts 306°
2026-05-07 19:26 -12.01213 -77.12156 54 ft 7 kts 320°
2026-05-07 19:27 -12.01165 -77.12184 53 ft 8 kts 333°
2026-05-07 19:27 -12.01111 -77.12211 54 ft 9 kts 334°
2026-05-07 19:27 -12.01055 -77.12238 53 ft 9 kts 335°
2026-05-07 19:27 -12.01007 -77.12261 52 ft 7 kts 335°
2026-05-07 19:28 -12.00963 -77.12282 52 ft 6 kts 335°
2026-05-07 19:28 -12.00926 -77.12300 51 ft 6 kts 335°
2026-05-07 19:28 -12.00925 -77.12301 51 ft 0 kts 335°
2026-05-07 19:28 -12.00913 -77.12306 51 ft 2 kts 335°
2026-05-07 19:29 -12.00900 -77.12312 51 ft 2 kts 338°
2026-05-07 19:29 -12.00861 -77.12305 51 ft 7 kts 36°
2026-05-07 19:29 -12.00839 -77.12269 52 ft 5 kts 63°
2026-05-07 19:29 -12.00826 -77.12243 52 ft 3 kts 63°
2026-05-07 19:30 -12.00806 -77.12202 52 ft 11 kts 63°
2026-05-07 19:30 -12.00779 -77.12144 49 ft 6 kts 67°
2026-05-07 19:30 -12.00790 -77.12120 49 ft 3 kts 159°
2026-05-07 19:30 -12.00811 -77.12110 52 ft 7 kts 154°
2026-05-07 19:31 -12.01057 -77.11990 54 ft 75 kts 154°
2026-05-07 19:31 -12.01714 -77.11667 62 ft 133 kts 155°
2026-05-07 19:31 -12.02680 -77.11190 201 ft 168 kts 154°
2026-05-07 19:31 -12.03713 -77.10649 848 ft 167 kts 156°
2026-05-07 19:32 -12.04780 -77.10120 1420 ft 178 kts 156°
2026-05-07 19:32 -12.05954 -77.09548 1864 ft 195 kts 155°
2026-05-07 19:32 -12.07246 -77.08930 2235 ft 216 kts 155°
2026-05-07 19:32 -12.08687 -77.08240 2658 ft 239 kts 154°
2026-05-07 19:33 -12.10253 -77.07469 3165 ft 259 kts 153°
2026-05-07 19:33 -12.11908 -77.06637 3939 ft 265 kts 153°
2026-05-07 19:33 -12.13545 -77.05815 4887 ft 264 kts 154°
2026-05-07 19:33 -12.14168 -77.05507 5221 ft 264 kts 154°
2026-05-07 19:34 -12.15870 -77.04796 5831 ft 271 kts 158°
2026-05-07 19:34 -12.17616 -77.03995 6311 ft 276 kts 154°
2026-05-07 19:34 -12.19335 -77.03116 7151 ft 277 kts 153°
2026-05-07 19:34 -12.21064 -77.02196 7901 ft 282 kts 152°
2026-05-07 19:35 -12.22806 -77.01243 8678 ft 285 kts 149°
2026-05-07 19:35 -12.24316 -76.99948 9370 ft 290 kts 130°
2026-05-07 19:35 -12.25402 -76.98188 10071 ft 294 kts 115°
2026-05-07 19:35 -12.26270 -76.96243 10489 ft 310 kts 115°
2026-05-07 19:36 -12.27223 -76.94184 10678 ft 332 kts 116°
2026-05-07 19:36 -12.28265 -76.92026 11102 ft 343 kts 116°
2026-05-07 19:36 -12.29343 -76.89827 11694 ft 347 kts 117°
2026-05-07 19:36 -12.30433 -76.87606 12306 ft 351 kts 116°
2026-05-07 19:37 -12.31533 -76.85353 12932 ft 355 kts 116°
2026-05-07 19:37 -12.32624 -76.83110 13529 ft 358 kts 116°
2026-05-07 19:37 -12.33734 -76.80817 14089 ft 361 kts 116°
2026-05-07 19:37 -12.34849 -76.78502 14644 ft 363 kts 116°
2026-05-07 19:38 -12.35968 -76.76177 15217 ft 365 kts 116°
2026-05-07 19:38 -12.37093 -76.73837 15791 ft 367 kts 116°
2026-05-07 19:38 -12.38223 -76.71487 16339 ft 369 kts 116°
2026-05-07 19:38 -12.39358 -76.69123 16878 ft 371 kts 116°
2026-05-07 19:39 -12.40504 -76.66739 17412 ft 374 kts 116°
2026-05-07 19:39 -12.41658 -76.64343 17957 ft 376 kts 116°
2026-05-07 19:39 -12.42821 -76.61933 18462 ft 379 kts 116°
2026-05-07 19:39 -12.43997 -76.59509 18899 ft 382 kts 116°
2026-05-07 19:40 -12.45182 -76.57069 19357 ft 384 kts 116°
2026-05-07 19:40 -12.46362 -76.54638 19798 ft 387 kts 116°
2026-05-07 19:40 -12.47564 -76.52161 20237 ft 390 kts 116°
2026-05-07 19:40 -12.48773 -76.49666 20663 ft 392 kts 116°
2026-05-07 19:41 -12.49992 -76.47151 21095 ft 395 kts 117°
2026-05-07 19:41 -12.51220 -76.44620 21512 ft 398 kts 117°
2026-05-07 19:41 -12.52457 -76.42064 21939 ft 401 kts 117°
2026-05-07 19:41 -12.53698 -76.39501 22360 ft 404 kts 117°
2026-05-07 19:42 -12.54951 -76.36914 22757 ft 407 kts 117°
2026-05-07 19:42 -12.56193 -76.34343 23172 ft 409 kts 117°
2026-05-07 19:42 -12.57462 -76.31716 23569 ft 412 kts 117°
2026-05-07 19:42 -12.58739 -76.29075 23901 ft 415 kts 117°
2026-05-07 19:43 -12.60025 -76.26413 24216 ft 418 kts 117°
2026-05-07 19:43 -12.61322 -76.23724 24534 ft 422 kts 117°
2026-05-07 19:43 -12.62624 -76.21020 24828 ft 425 kts 117°
2026-05-07 19:43 -12.63942 -76.18284 25139 ft 429 kts 117°
2026-05-07 19:44 -12.65272 -76.15534 25446 ft 433 kts 117°
2026-05-07 19:44 -12.66611 -76.12761 25763 ft 436 kts 117°
2026-05-07 19:44 -12.67942 -76.10002 26063 ft 439 kts 117°
2026-05-07 19:44 -12.69298 -76.07189 26359 ft 442 kts 117°
2026-05-07 19:45 -12.70666 -76.04355 26649 ft 445 kts 117°
2026-05-07 19:45 -12.72043 -76.01501 26930 ft 448 kts 117°
2026-05-07 19:45 -12.73428 -75.98627 27067 ft 449 kts 117°
2026-05-07 19:45 -12.74614 -75.95727 27101 ft 437 kts 108°
2026-05-07 19:46 -12.75364 -75.92719 27101 ft 433 kts 103°
2026-05-07 19:46 -12.76052 -75.89723 27103 ft 431 kts 104°
2026-05-07 19:46 -12.76746 -75.86735 27114 ft 430 kts 104°
2026-05-07 19:46 -12.77446 -75.83755 27110 ft 430 kts 104°
2026-05-07 19:47 -12.78150 -75.80775 27121 ft 430 kts 104°
2026-05-07 19:47 -12.78854 -75.77793 27119 ft 430 kts 104°
2026-05-07 19:47 -12.79555 -75.74807 27124 ft 430 kts 104°
2026-05-07 19:47 -12.80248 -75.71829 27119 ft 430 kts 104°
2026-05-07 19:48 -12.80939 -75.68848 27126 ft 429 kts 104°
2026-05-07 19:48 -12.81621 -75.65907 27115 ft 429 kts 104°
2026-05-07 19:48 -12.82314 -75.62930 27120 ft 429 kts 104°
2026-05-07 19:48 -12.83008 -75.59952 27114 ft 429 kts 104°
2026-05-07 19:49 -12.83701 -75.56975 27117 ft 430 kts 104°
2026-05-07 19:49 -12.84392 -75.53998 27119 ft 430 kts 104°
2026-05-07 19:49 -12.85088 -75.51016 27121 ft 430 kts 104°
2026-05-07 19:49 -12.85783 -75.48034 27130 ft 430 kts 104°
2026-05-07 19:50 -12.86475 -75.45053 27126 ft 430 kts 104°
2026-05-07 19:50 -12.87113 -75.42064 27135 ft 430 kts 98°
2026-05-07 19:50 -12.87329 -75.39009 27119 ft 429 kts 89°
2026-05-07 19:50 -12.87144 -75.35955 27122 ft 429 kts 86°
2026-05-07 19:51 -12.86938 -75.32939 27118 ft 429 kts 86°
2026-05-07 19:51 -12.86735 -75.29889 27115 ft 429 kts 86°
2026-05-07 19:51 -12.86533 -75.26835 27113 ft 429 kts 86°
2026-05-07 19:51 -12.86330 -75.23778 27113 ft 430 kts 86°
2026-05-07 19:52 -12.86127 -75.20722 27111 ft 430 kts 86°
2026-05-07 19:52 -12.85923 -75.17658 27108 ft 430 kts 86°
2026-05-07 19:52 -12.85722 -75.14595 27109 ft 430 kts 86°
2026-05-07 19:52 -12.85521 -75.11533 27106 ft 430 kts 86°
2026-05-07 19:53 -12.85319 -75.08477 27087 ft 430 kts 86°
2026-05-07 19:53 -12.85115 -75.05440 26846 ft 421 kts 86°
2026-05-07 19:53 -12.84916 -75.02482 26576 ft 412 kts 86°
2026-05-07 19:53 -12.84721 -74.99605 26126 ft 409 kts 86°
2026-05-07 19:54 -12.84519 -74.96703 25637 ft 407 kts 86°
2026-05-07 19:54 -12.84310 -74.93820 25150 ft 401 kts 87°
2026-05-07 19:54 -12.84101 -74.90999 24651 ft 393 kts 87°
2026-05-07 19:54 -12.83899 -74.88238 24180 ft 385 kts 87°
2026-05-07 19:55 -12.83702 -74.85534 23703 ft 374 kts 87°
2026-05-07 19:55 -12.83511 -74.82909 23183 ft 362 kts 87°
2026-05-07 19:55 -12.83326 -74.80372 22750 ft 353 kts 87°
2026-05-07 19:55 -12.83147 -74.77889 22318 ft 346 kts 87°
2026-05-07 19:56 -12.82972 -74.75438 21891 ft 343 kts 88°
2026-05-07 19:56 -12.82796 -74.73018 21476 ft 336 kts 87°
2026-05-07 19:56 -12.82626 -74.70677 21079 ft 330 kts 87°
2026-05-07 19:56 -12.82459 -74.68348 20681 ft 324 kts 87°
2026-05-07 19:57 -12.82292 -74.66060 20287 ft 320 kts 87°
2026-05-07 19:57 -12.82127 -74.63798 19903 ft 316 kts 87°
2026-05-07 19:57 -12.81965 -74.61569 19525 ft 312 kts 87°
2026-05-07 19:57 -12.81803 -74.59369 19153 ft 308 kts 87°
2026-05-07 19:58 -12.81644 -74.57189 18791 ft 304 kts 87°
2026-05-07 19:58 -12.81486 -74.55045 18237 ft 309 kts 86°
2026-05-07 19:58 -12.81323 -74.52847 17739 ft 308 kts 86°
2026-05-07 19:58 -12.81162 -74.50665 17359 ft 304 kts 86°
2026-05-07 19:59 -12.81005 -74.48526 16997 ft 298 kts 86°
2026-05-07 19:59 -12.80864 -74.46417 16648 ft 295 kts 89°
2026-05-07 19:59 -12.80871 -74.44314 16313 ft 296 kts 94°
2026-05-07 19:59 -12.81098 -74.42220 15963 ft 296 kts 100°
2026-05-07 20:00 -12.81602 -74.40165 15622 ft 298 kts 109°
2026-05-07 20:00 -12.82399 -74.38189 15276 ft 301 kts 117°
2026-05-07 20:00 -12.83475 -74.36340 14936 ft 303 kts 124°
2026-05-07 20:00 -12.84803 -74.34661 14711 ft 301 kts 133°
2026-05-07 20:01 -12.86293 -74.33232 14627 ft 294 kts 140°
2026-05-07 20:01 -12.87934 -74.32023 14528 ft 285 kts 145°
2026-05-07 20:01 -12.89537 -74.30854 14296 ft 282 kts 142°
2026-05-07 20:01 -12.91120 -74.29615 13800 ft 286 kts 141°
2026-05-07 20:02 -12.92648 -74.28373 13582 ft 276 kts 141°
2026-05-07 20:02 -12.94139 -74.27148 13112 ft 274 kts 141°
2026-05-07 20:02 -12.95619 -74.25927 12713 ft 270 kts 141°
2026-05-07 20:02 -12.97040 -74.24757 12607 ft 254 kts 142°
2026-05-07 20:03 -12.98451 -74.23726 12362 ft 246 kts 146°
2026-05-07 20:03 -12.99859 -74.22877 12229 ft 228 kts 151°
2026-05-07 20:03 -13.01195 -74.22167 12140 ft 206 kts 153°
2026-05-07 20:03 -13.02437 -74.21520 12037 ft 188 kts 152°
2026-05-07 20:04 -13.03563 -74.20965 11766 ft 179 kts 161°
2026-05-07 20:04 -13.04741 -74.20565 11536 ft 178 kts 159°
2026-05-07 20:04 -13.05906 -74.20144 11226 ft 177 kts 158°
2026-05-07 20:04 -13.07067 -74.19715 10735 ft 176 kts 158°
2026-05-07 20:05 -13.08128 -74.19320 10206 ft 174 kts 159°
2026-05-07 20:05 -13.09296 -74.18885 9978 ft 175 kts 159°
2026-05-07 20:05 -13.10454 -74.18491 9835 ft 175 kts 166°
2026-05-07 20:05 -13.11636 -74.18626 9953 ft 178 kts 211°
2026-05-07 20:06 -13.12730 -74.19251 9575 ft 181 kts 204°
2026-05-07 20:06 -13.13866 -74.19762 9142 ft 179 kts 202°
2026-05-07 20:06 -13.14987 -74.20237 9026 ft 161 kts 202°
2026-05-07 20:06 -13.15851 -74.20602 8999 ft 94 kts 202°
2026-05-07 20:07 -13.16189 -74.20745 8978 ft 27 kts 204°
2026-05-07 20:07 -13.16382 -74.20829 8977 ft 30 kts 203°
2026-05-07 20:07 -13.16541 -74.20900 8980 ft 14 kts 218°
2026-05-07 20:07 -13.16572 -74.20955 8981 ft 13 kts 243°
2026-05-07 20:08 -13.16606 -74.20934 8982 ft 10 kts 56°
2026-05-07 20:08 -13.16524 -74.20889 8982 ft 18 kts 21°
2026-05-07 20:08 -13.16399 -74.20836 8976 ft 20 kts 23°
2026-05-07 20:08 -13.16270 -74.20778 8980 ft 20 kts 22°
2026-05-07 20:09 -13.07784 -74.19448 10316 ft 172 kts 158°
2026-05-07 20:10 -13.08489 -74.19185 10109 ft 172 kts 159°